Probability
29 31 32 24 17 14 15 14 11 8 5 2 2 3 4 5 8 11 14 14 12 11 10 9 6 3 1 1 2 3 6 8 7 7 6 4 2 2 5 6 4 2 1
33 34 34 29 21 17 17 16 13 10 8 6 4 4 4 6 7 9 10 10 9 10 9 7 5 3 1 3 5 6 7 8 8 7 6 4 2 2 6 6 4 2 1
35 33 34 32 26 21 19 17 15 13 12 11 8 6 6 7 8 7 6 5 5 6 6 6 5 3 3 5 7 8 8 9 9 7 4 3 1 3 6 7 5 3 1
34 31 31 33 30 23 19 17 15 14 13 13 11 8 7 8 8 8 5 3 3 3 4 5 6 5 4 6 7 9 10 10 9 6 4 3 5 7 9 8 6 4 3
34 32 32 32 29 24 18 15 13 13 12 12 12 10 8 8 8 7 7 5 4 3 3 5 7 6 5 6 8 10 11 11 9 7 5 7 12 15 14 11 9 7 6
34 33 32 30 27 23 17 13 12 12 10 9 9 9 9 9 8 6 7 7 6 6 4 4 5 6 7 8 9 11 12 12 10 7 6 9 17 22 20 15 13 12 11
32 31 30 30 28 22 16 14 14 13 10 8 7 8 9 10 9 7 7 8 7 7 5 3 4 6 8 9 9 10 12 12 10 6 5 8 16 22 22 18 17 16 15
32 30 28 27 27 22 17 16 17 16 13 10 8 8 9 12 12 9 9 8 8 8 7 6 4 4 6 8 9 10 11 11 9 6 5 8 15 21 22 20 19 17 16
32 30 26 22 21 20 18 18 19 19 16 12 10 8 9 10 10 9 9 9 9 10 10 8 6 4 4 6 9 10 11 10 9 7 7 12 19 22 20 19 19 18 16
30 28 24 19 16 17 17 18 21 20 16 12 9 8 8 7 7 6 7 9 11 13 14 12 10 7 5 6 8 10 11 12 9 7 10 18 25 23 18 16 17 16 15
27 25 21 18 16 16 16 17 20 18 14 11 8 7 7 7 6 6 7 10 12 14 14 14 13 12 10 9 10 11 13 13 9 6 11 21 26 24 19 15 14 13 11
27 23 21 20 18 16 15 16 16 14 11 10 8 7 8 7 6 7 8 11 13 13 12 13 14 16 14 13 12 13 15 14 9 6 11 21 26 24 19 15 13 11 9
27 23 21 21 20 17 16 15 12 9 8 9 9 9 9 7 6 6 8 12 13 12 11 12 15 16 16 14 12 13 14 14 10 10 16 24 26 23 19 16 12 10 8
27 23 21 22 23 22 19 16 13 10 9 10 11 12 10 9 7 6 7 11 13 13 13 14 15 16 15 13 12 12 13 12 11 13 21 27 25 21 18 15 11 8 6
26 24 23 25 28 29 24 19 15 13 12 12 13 13 12 11 10 9 9 12 14 14 15 16 16 16 15 12 10 10 10 11 10 12 19 24 24 21 17 13 9 6 5
27 26 26 28 31 31 26 20 17 15 14 13 13 13 12 12 12 12 12 13 14 15 16 18 17 16 13 9 8 9 9 10 9 10 15 20 21 20 18 15 12 9 8
30 29 28 28 31 31 26 19 15 14 14 13 12 12 12 13 14 15 15 15 15 15 16 18 17 14 10 7 7 9 10 9 8 9 11 14 15 16 16 17 17 16 15
34 34 31 29 31 30 25 19 15 15 16 16 15 15 16 17 18 18 17 16 15 15 16 16 15 13 11 8 8 9 10 9 8 7 8 9 10 10 12 14 17 19 20
39 38 34 31 31 29 25 21 19 18 19 19 19 19 19 20 20 19 17 15 14 14 14 14 15 15 13 11 10 11 11 10 8 8 8 9 9 9 9 10 13 16 17
40 39 36 33 31 28 25 22 20 20 19 19 20 20 19 20 21 18 16 15 14 14 13 14 15 15 13 12 12 11 11 10 9 9 11 10 10 11 10 10 10 9 9
37 37 36 33 29 26 23 19 18 19 19 18 18 19 18 19 19 16 14 16 16 15 14 14 14 13 13 13 12 11 9 8 8 10 12 11 11 12 12 11 10 8 6
34 33 34 32 27 23 20 17 17 19 19 15 15 17 18 18 16 12 12 14 16 15 15 14 13 12 11 12 12 11 8 6 6 8 10 10 11 12 11 10 10 10 9
28 27 28 28 25 21 19 16 16 16 15 13 14 16 18 17 13 9 10 11 12 13 13 13 11 11 10 11 12 11 8 6 5 6 7 8 9 10 9 8 8 9 9
20 21 24 25 24 21 17 15 13 11 10 11 14 17 18 16 11 9 9 9 9 10 10 9 8 8 8 9 10 9 7 6 5 5 5 5 6 7 8 8 7 8 9
14 17 20 23 24 22 17 14 12 9 9 10 13 15 16 13 9 7 7 7 7 8 7 6 6 6 6 6 7 6 4 3 4 3 2 3 4 6 7 9 9 10 12
13 14 18 22 23 22 17 14 13 11 9 9 11 14 15 12 8 5 5 6 6 6 5 4 4 4 4 4 5 4 2 2 3 2 1 1 3 5 7 8 10 12 14
Wind_Speed
13 14 14 11 10 9 9 8 8 8 9 9 8 8 8 8 9 9 9 10 9 9 9 8 8 8 7 7 8 8 9 8 8 9 10 10 10 10 9 8 7 8 11
15 14 14 12 10 9 9 9 8 8 8 8 8 8 8 8 8 8 8 8 8 8 7 7 7 7 7 6 6 6 6 6 6 7 8 8 8 8 8 7 7 7 11
14 14 13 12 11 10 9 9 8 8 8 8 8 8 7 7 7 7 7 7 7 6 6 6 6 6 5 5 5 5 4 4 4 5 5 5 7 8 8 8 9 10 10
14 12 12 13 11 10 9 9 8 8 8 7 7 7 7 7 7 7 7 6 6 6 5 5 5 5 4 4 3 3 2 2 3 4 4 4 6 9 9 8 9 9 8
12 12 13 13 11 10 9 8 8 7 7 7 6 6 6 6 6 6 6 6 5 5 4 4 4 4 3 3 2 2 2 2 3 6 4 3 5 10 10 9 9 8 8
12 12 14 13 11 11 10 9 8 7 7 7 6 6 6 5 5 5 5 5 4 4 4 4 4 3 3 2 2 3 3 4 5 6 3 4 6 11 11 10 9 8 8
11 12 14 13 12 11 10 9 8 7 7 6 6 6 6 5 4 4 5 4 3 3 3 3 3 3 2 2 2 3 4 5 6 4 2 3 7 11 11 10 9 8 8
11 12 12 13 13 11 10 9 8 7 6 5 5 6 6 5 5 5 5 4 4 3 3 3 3 3 3 3 4 5 5 7 6 4 2 4 9 11 10 9 8 8 7
11 12 10 11 11 11 10 10 9 7 7 6 5 5 6 6 6 6 6 6 5 5 5 5 4 5 5 6 7 7 7 8 7 3 2 4 11 11 10 8 7 7 6
10 10 9 9 8 8 9 10 10 8 7 7 7 6 6 7 8 8 8 7 7 6 6 7 7 7 8 9 9 9 9 7 6 3 2 6 11 10 9 8 7 6 6
8 8 8 7 7 6 7 9 9 9 8 7 6 7 6 5 5 6 7 9 9 8 8 8 9 9 10 11 12 12 9 5 5 3 3 8 10 9 8 7 7 6 6
6 6 7 7 6 6 5 5 5 5 6 4 3 3 4 3 2 4 7 10 10 10 9 10 10 9 9 6 8 12 5 5 4 2 5 10 10 9 8 6 6 6 6
6 4 5 6 5 4 3 4 2 2 3 3 3 4 3 2 2 1 2 4 6 8 6 6 8 6 5 4 3 4 5 3 2 2 6 11 11 10 8 7 6 6 6
6 5 5 5 5 4 3 2 2 1 2 2 2 2 2 1 1 1 1 2 3 3 3 3 3 3 3 4 4 4 4 2 1 2 4 10 10 10 9 8 7 7 6
6 5 5 4 5 4 3 1 2 1 1 1 2 1 1 1 1 1 1 1 2 2 2 2 2 2 3 3 3 3 2 2 1 2 3 9 10 9 9 9 8 7 7
6 5 4 5 6 5 3 1 1 1 1 1 1 1 1 1 1 1 2 1 1 1 1 1 1 1 2 2 2 2 2 1 2 3 3 5 9 9 9 9 9 8 8
5 5 4 5 6 5 3 1 1 1 1 1 1 1 1 1 1 1 1 1 1 1 1 1 1 1 1 2 2 2 2 1 2 2 3 3 5 8 9 9 9 9 9
6 5 4 4 6 4 3 1 0 0 1 1 1 1 1 1 1 1 1 0 1 1 1 1 0 1 1 1 2 2 1 2 3 3 3 4 4 4 6 9 9 9 9
6 6 4 3 5 4 3 1 1 1 0 1 1 1 0 0 1 0 0 0 1 1 0 1 0 1 1 2 2 1 1 2 2 4 4 4 4 4 4 7 10 10 10
6 6 5 4 4 3 2 1 1 1 1 1 1 1 1 0 0 0 0 0 1 0 1 1 0 1 1 2 2 1 1 1 1 3 4 3 3 4 5 5 5 7 10
6 5 4 4 3 3 2 1 1 1 1 1 1 2 2 1 1 0 1 0 1 0 0 0 0 1 1 1 0 1 1 1 1 2 2 3 4 3 4 5 5 4 4
6 5 5 4 4 3 2 1 1 1 1 1 1 2 2 1 0 0 1 0 1 1 0 0 1 1 1 1 1 0 1 1 1 2 2 2 3 3 3 4 4 4 3
7 6 5 4 4 2 2 1 1 1 0 1 1 2 2 2 1 1 1 0 1 1 1 1 1 1 1 1 1 1 1 1 1 1 2 1 1 1 2 2 4 4 4
7 6 5 5 4 3 2 2 1 1 1 1 1 2 2 2 2 1 1 1 1 1 0 1 0 1 1 1 1 1 1 1 1 1 2 1 1 1 1 2 2 2 3
7 7 6 5 4 3 2 1 1 0 0 1 2 2 2 2 1 1 1 1 1 1 1 1 1 1 1 1 1 1 0 1 1 1 2 2 1 1 2 2 1 2 3
7 6 6 5 4 3 2 2 1 1 1 1 2 2 1 2 1 2 2 1 0 1 1 0 1 1 1 0 1 1 1 1 1 2 2 2 2 2 2 1 1 1 2
Wind_Direction
109 118 119 118 117 113 111 108 106 113 118 116 112 108 104 100 96 95 95 98 102 104 108 108 106 105 98 92 86 85 85 85 87 97 103 104 106 104 103 105 116 112 115
113 119 119 119 120 118 114 111 109 111 118 119 117 113 112 110 107 105 103 105 107 109 110 111 112 108 106 105 99 93 93 98 103 111 117 120 123 119 114 108 98 112 119
112 121 122 122 122 121 118 114 114 118 121 123 124 120 117 117 118 117 114 115 115 116 116 115 117 117 114 116 114 110 109 109 137 147 158 159 144 138 129 117 112 118 123
116 124 123 126 125 126 125 121 120 123 126 126 129 129 128 125 124 122 119 121 123 124 126 127 124 124 125 126 128 131 140 150 183 199 210 179 150 143 137 128 123 125 132
117 123 126 130 131 132 132 129 129 129 133 132 133 132 130 130 132 131 125 123 126 131 134 139 139 140 145 154 164 188 211 228 238 240 232 142 126 139 143 139 133 133 138
123 124 129 133 132 137 138 136 138 139 138 139 140 136 130 132 138 139 137 134 137 144 151 154 151 151 158 176 196 218 236 248 255 245 208 140 130 143 144 145 141 140 142
124 122 131 135 134 135 139 139 137 139 139 140 143 145 143 145 148 152 155 158 161 160 169 176 159 159 165 188 220 237 244 249 254 248 177 131 133 143 146 150 148 148 145
119 118 129 136 139 142 142 141 139 141 143 146 149 152 156 162 167 170 168 168 176 182 193 193 183 189 200 213 234 246 250 255 263 246 148 120 138 145 147 150 152 152 154
119 121 134 144 145 147 146 144 145 150 154 159 166 169 171 179 185 184 178 177 185 194 197 202 212 218 223 227 232 241 249 256 271 253 189 130 138 144 148 152 153 157 162
120 126 136 142 146 154 154 155 155 157 164 174 179 186 189 195 198 195 187 183 192 200 202 208 217 225 232 236 238 240 245 257 254 242 149 129 139 147 154 159 162 166 175
122 130 137 140 147 156 158 156 162 165 172 181 188 195 199 206 198 196 185 176 191 202 208 214 222 229 236 238 235 235 240 238 226 203 134 141 145 151 158 166 169 178 187
133 140 140 143 153 158 153 147 164 168 163 185 180 189 200 212 208 194 169 187 199 208 212 217 227 231 234 235 227 228 234 232 220 168 144 152 151 155 162 166 173 180 192
139 134 132 134 136 136 130 144 161 164 153 182 177 197 197 199 196 176 168 183 202 210 215 211 221 225 225 227 224 216 228 240 204 158 153 159 156 161 167 174 182 186 194
143 146 123 122 121 105 97 122 147 149 155 163 169 197 173 190 215 173 188 188 199 207 205 211 213 219 233 238 228 226 223 221 193 122 153 158 159 163 169 180 190 199 205
144 137 123 121 107 95 86 59 85 82 130 143 152 172 161 183 210 200 218 222 221 215 210 225 216 210 233 247 254 250 241 213 170 146 160 168 168 172 178 186 196 206 210
140 133 127 128 112 107 104 86 71 111 128 135 134 153 182 198 203 216 221 220 250 240 231 227 232 226 232 242 251 252 246 226 174 176 167 173 177 182 185 191 198 206 212
128 124 122 136 119 118 124 141 86 59 87 73 112 145 156 198 204 225 240 227 256 267 259 245 227 232 238 248 250 250 248 220 211 187 184 174 180 191 195 198 201 207 213
134 127 132 135 125 130 132 148 121 112 93 105 134 109 143 201 217 226 224 266 293 284 249 244 226 248 266 263 250 247 232 219 209 203 199 198 182 181 197 203 203 207 212
135 131 135 130 130 136 140 172 184 134 180 152 120 105 121 161 194 242 246 109 276 283 295 282 23 291 275 276 259 225 210 214 212 218 211 208 189 174 177 198 207 208 212
135 137 145 141 132 141 152 177 185 180 157 103 94 111 108 94 3 21 184 123 284 311 314 335 342 283 260 259 280 302 238 221 215 222 210 201 199 191 184 189 197 210 212
134 137 147 143 133 139 144 165 180 185 187 147 155 135 119 109 67 168 5 16 350 332 278 205 235 257 269 261 6 310 307 221 210 222 211 201 203 200 191 188 194 195 206
143 144 145 139 141 148 141 171 191 168 211 157 121 125 129 116 37 146 98 357 56 291 191 254 260 257 255 219 182 156 253 254 299 246 200 212 206 194 199 201 192 191 193
147 152 152 143 139 156 148 168 141 127 251 108 125 122 131 135 129 46 76 47 5 268 200 240 240 256 257 245 171 150 202 231 302 284 273 226 183 190 201 194 193 189 195
145 147 140 138 138 151 146 147 151 155 188 152 131 128 139 132 120 106 46 41 353 319 27 274 36 286 246 235 196 192 177 144 199 286 279 273 220 235 229 235 217 184 186
141 139 138 133 135 137 143 145 163 136 118 87 92 112 135 136 144 113 85 34 354 352 41 320 327 278 255 248 245 240 209 208 216 222 256 264 268 247 234 231 212 200 181
138 134 135 135 136 136 152 149 150 125 94 83 82 105 149 130 131 108 108 74 333 359 43 6 352 275 299 317 305 269 220 220 230 227 228 233 244 247 231 242 231 203 197